Weather History for Farmington, MO

Change the Weather History Date:

Friday, November 1, 2013

  Actual Average Record
Temperature  
Mean Temperature 55 °F -  
Max Temperature 64 °F 59 °F 78 °F (2000)
Min Temperature 46 °F 42 °F 30 °F (2012)
Degree Days  
Heating Degree Days 10    
Growing Degree Days 5 (Base 50)    
Moisture  
Dew Point 41 °F    
Average Humidity 66    
Maximum Humidity 87    
Minimum Humidity 39    
Precipitation  
Precipitation 0.01 in - - ()
Sea Level Pressure  
Sea Level Pressure 29.79 in    
Wind  
Wind Speed 8 mph (West)    
Max Wind Speed 17 mph    
Max Gust Speed 26 mph    
Visibility 10 miles    
Events      
Averages and records for this station are not official NWS values.
T = Trace of Precipitation, MM = Missing Value Source: NWS Daily Summary

Daily Weather History Graph

Daily Weather History Graph

Search for Another Location

Airport:

Trip Planner

Search our weather history database for the weather conditions in past years. The results will help you decide how hot, cold, wet, or windy it might be!

Date:

Astronomy

Nov. 01, 2013 Rise Set
Actual Time 7:27 AM CDT 6:02 PM CDT
Civil Twilight 7:00 AM CDT 6:29 PM CDT
Nautical Twilight 6:29 AM CDT 7:00 PM CDT
Astronomical Twilight 5:58 AM CDT 7:31 PM CDT
Moon 5:21 AM CDT 4:54 PM CDT
Length of Visible Light 11h 29m
Length of Day
10h 35m
Waning Crescent, 4% of the Moon is Illuminated
Nov 1
Waning Crescent
Nov 3
New
Nov 9
First Quarter
Nov 17
Full
Nov 25
Last Quarter

Hourly Weather History & Observations

Time (CDT) Temp. Windchill Dew Point Humidity Pressure Visibility Wind Dir Wind Speed Gust Speed Precip Events Conditions
12:15 AM 48.2 °F - 44.6 °F 87% 29.71 in 10.0 mi WSW 6.9 mph - N/A   Clear
12:35 AM 48.2 °F - 44.6 °F 87% 29.71 in 10.0 mi WSW 8.1 mph - N/A   Clear
12:55 AM 48.2 °F - 44.6 °F 87% 29.72 in 10.0 mi WSW 6.9 mph - N/A   Clear
1:15 AM 48.2 °F - 44.6 °F 87% 29.73 in 10.0 mi SW 6.9 mph - N/A   Clear
1:35 AM 48.2 °F - 44.6 °F 87% 29.73 in 10.0 mi WSW 6.9 mph - N/A   Clear
1:55 AM 48.2 °F - 44.6 °F 87% 29.73 in 10.0 mi SW 6.9 mph - N/A   Clear
2:15 AM 48.2 °F - 44.6 °F 87% 29.73 in 10.0 mi WSW 6.9 mph - N/A   Clear
2:35 AM 48.2 °F - 44.6 °F 87% 29.73 in 10.0 mi WSW 6.9 mph - N/A   Clear
2:55 AM 48.2 °F - 44.6 °F 87% 29.73 in 10.0 mi WSW 8.1 mph - N/A   Clear
3:15 AM 48.2 °F - 44.6 °F 87% 29.73 in 10.0 mi West 8.1 mph - N/A   Clear
3:35 AM 48.2 °F - 44.6 °F 87% 29.73 in 10.0 mi West 8.1 mph - N/A   Clear
3:55 AM 48.2 °F - 44.6 °F 87% 29.73 in 10.0 mi WSW 8.1 mph - N/A   Clear
4:15 AM 48.2 °F - 44.6 °F 87% 29.73 in 10.0 mi West 8.1 mph - N/A   Clear
4:35 AM 48.2 °F - 44.6 °F 87% 29.71 in 10.0 mi West 4.6 mph - N/A   Clear
4:55 AM 48.2 °F - 42.8 °F 82% 29.72 in 10.0 mi WSW 6.9 mph - N/A   Clear
5:15 AM 48.2 °F - 42.8 °F 82% 29.72 in 10.0 mi West 5.8 mph - N/A   Clear
5:35 AM 48.2 °F - 42.8 °F 82% 29.73 in 10.0 mi WSW 5.8 mph - N/A   Clear
5:55 AM 46.4 °F 43.5 °F 42.8 °F 87% 29.73 in 10.0 mi WSW 5.8 mph - N/A   Clear
6:15 AM 46.4 °F 43.5 °F 41.0 °F 81% 29.73 in 10.0 mi WSW 5.8 mph - N/A   Clear
6:35 AM 46.4 °F 43.5 °F 41.0 °F 81% 29.73 in 10.0 mi WSW 5.8 mph - N/A   Clear
6:55 AM 46.4 °F 44.3 °F 41.0 °F 81% 29.73 in 10.0 mi SW 4.6 mph - N/A   Clear
7:15 AM 46.4 °F 44.3 °F 41.0 °F 81% 29.73 in 10.0 mi South 4.6 mph - N/A   Clear
7:35 AM 46.4 °F 43.5 °F 41.0 °F 81% 29.74 in 10.0 mi SSW 5.8 mph - N/A   Clear
7:55 AM 46.4 °F 43.5 °F 42.8 °F 87% 29.75 in 10.0 mi SW 5.8 mph - N/A   Clear
8:15 AM 46.4 °F 45.2 °F 42.8 °F 87% 29.76 in 10.0 mi SW 3.5 mph - N/A   Clear
8:35 AM 48.2 °F - 44.6 °F 87% 29.77 in 10.0 mi SW 8.1 mph - N/A   Clear
8:55 AM 48.2 °F - 44.6 °F 87% 29.78 in 10.0 mi WSW 4.6 mph - N/A   Clear
9:15 AM 51.8 °F - 44.6 °F 76% 29.78 in 10.0 mi WSW 9.2 mph - N/A   Clear
9:35 AM 53.6 °F - 44.6 °F 72% 29.78 in 10.0 mi West 11.5 mph 16.1 mph N/A   Clear
9:55 AM 53.6 °F - 42.8 °F 67% 29.78 in 10.0 mi West 11.5 mph 17.3 mph N/A   Clear
10:15 AM 53.6 °F - 42.8 °F 67% 29.79 in 10.0 mi West 10.4 mph - N/A   Clear
10:35 AM 53.6 °F - 42.8 °F 67% 29.78 in 10.0 mi West 9.2 mph - N/A   Clear
10:55 AM 55.4 °F - 42.8 °F 63% 29.79 in 10.0 mi West 9.2 mph - N/A   Clear
11:15 AM 57.2 °F - 42.8 °F 59% 29.79 in 10.0 mi West 6.9 mph 17.3 mph N/A   Clear
11:35 AM 57.2 °F - 42.8 °F 59% 29.79 in 10.0 mi WNW 11.5 mph 17.3 mph N/A   Clear
11:55 AM 59.0 °F - 42.8 °F 55% 29.79 in 10.0 mi West 12.7 mph - N/A   Clear
12:15 PM 60.8 °F - 41.0 °F 48% 29.79 in 10.0 mi WNW 12.7 mph 17.3 mph N/A   Clear
12:35 PM 60.8 °F - 39.2 °F 45% 29.79 in 10.0 mi WNW 12.7 mph 21.9 mph N/A   Clear
12:55 PM 60.8 °F - 41.0 °F 48% 29.78 in 10.0 mi WNW 12.7 mph 20.7 mph N/A   Clear
1:15 PM 60.8 °F - 39.2 °F 45% 29.78 in 10.0 mi WNW 17.3 mph 26.5 mph N/A   Clear
1:35 PM 60.8 °F - 39.2 °F 45% 29.78 in 10.0 mi WNW 13.8 mph 20.7 mph N/A   Clear
1:55 PM 62.6 °F - 41.0 °F 45% 29.77 in 10.0 mi WNW 15.0 mph 20.7 mph N/A   Clear
2:15 PM 62.6 °F - 39.2 °F 42% 29.77 in 10.0 mi WNW 9.2 mph 16.1 mph N/A   Clear
2:35 PM 62.6 °F - 39.2 °F 42% 29.77 in 10.0 mi West 11.5 mph 18.4 mph N/A   Scattered Clouds
2:55 PM 62.6 °F - 39.2 °F 42% 29.77 in 10.0 mi West 12.7 mph 20.7 mph N/A   Scattered Clouds
3:15 PM 62.6 °F - 39.2 °F 42% 29.77 in 10.0 mi West 10.4 mph 18.4 mph N/A   Partly Cloudy
3:35 PM 62.6 °F - 39.2 °F 42% 29.77 in 10.0 mi WNW 9.2 mph 17.3 mph N/A   Partly Cloudy
3:55 PM 64.4 °F - 39.2 °F 40% 29.78 in 10.0 mi WNW 11.5 mph 19.6 mph N/A   Scattered Clouds
4:15 PM 64.4 °F - 39.2 °F 40% 29.78 in 10.0 mi WNW 11.5 mph 17.3 mph N/A   Mostly Cloudy
4:35 PM 62.6 °F - 37.4 °F 39% 29.79 in 10.0 mi West 11.5 mph 18.4 mph N/A   Mostly Cloudy
4:55 PM 60.8 °F - 37.4 °F 42% 29.79 in 10.0 mi WNW 11.5 mph 16.1 mph N/A   Mostly Cloudy
5:15 PM 60.8 °F - 37.4 °F 42% 29.79 in 10.0 mi WNW 9.2 mph - N/A   Overcast
5:35 PM 59.0 °F - 37.4 °F 45% 29.80 in 10.0 mi WNW 8.1 mph - N/A   Scattered Clouds
5:55 PM 59.0 °F - 37.4 °F 45% 29.81 in 10.0 mi WNW 8.1 mph 16.1 mph N/A   Clear
6:15 PM 57.2 °F - 35.6 °F 44% 29.82 in 10.0 mi WNW 10.4 mph - N/A   Clear
6:35 PM 57.2 °F - 35.6 °F 44% 29.83 in 10.0 mi WNW 8.1 mph - N/A   Partly Cloudy
6:55 PM 55.4 °F - 35.6 °F 47% 29.84 in 10.0 mi WNW 6.9 mph - N/A   Partly Cloudy
7:15 PM 55.4 °F - 35.6 °F 47% 29.85 in 10.0 mi WNW 5.8 mph - N/A   Clear
7:35 PM 53.6 °F - 37.4 °F 54% 29.86 in 10.0 mi WNW 6.9 mph - N/A   Clear
7:55 PM 53.6 °F - 37.4 °F 54% 29.86 in 10.0 mi WNW 9.2 mph - N/A   Clear
8:15 PM 53.6 °F - 37.4 °F 54% 29.86 in 10.0 mi WNW 6.9 mph - N/A   Clear
8:35 PM 51.8 °F - 37.4 °F 58% 29.87 in 10.0 mi WNW 4.6 mph - N/A   Clear
8:55 PM 51.8 °F - 37.4 °F 58% 29.87 in 10.0 mi West 3.5 mph - N/A   Clear
9:15 PM 50.0 °F - 37.4 °F 62% 29.88 in 10.0 mi West 4.6 mph - N/A   Clear
9:35 PM 50.0 °F - 37.4 °F 62% 29.88 in 10.0 mi West 4.6 mph - N/A   Clear
9:55 PM 48.2 °F - 37.4 °F 66% 29.89 in 10.0 mi WSW 3.5 mph - N/A   Clear
10:15 PM 46.4 °F 45.2 °F 37.4 °F 71% 29.90 in 10.0 mi West 3.5 mph - N/A   Clear
10:35 PM 46.4 °F - 37.4 °F 71% 29.90 in 10.0 mi Calm Calm - N/A   Mostly Cloudy
10:55 PM 48.2 °F - 37.4 °F 66% 29.91 in 10.0 mi West 3.5 mph - N/A   Overcast
11:15 PM 48.2 °F - 37.4 °F 66% 29.91 in 10.0 mi West 4.6 mph - N/A   Overcast
11:35 PM 48.2 °F - 37.4 °F 66% 29.91 in 10.0 mi WNW 5.8 mph - N/A   Scattered Clouds
11:55 PM 48.2 °F - 37.4 °F 66% 29.91 in 10.0 mi WNW 6.9 mph - N/A   Clear